Previsão horária em Ploemeur

Hoje, 24 Fevereiro, Quarta-feira

Tempo Temperatura Precipitação Vento Pressão Humidade
00:00 +11°C° 0 mm 6 m/s 766 mmHg 69%
01:00 +11°C° 0 mm 6 m/s 766 mmHg 71%
02:00 +11°C° 0 mm 7 m/s 766 mmHg 73%
03:00 +11°C° 0 mm 7 m/s 766 mmHg 75%
04:00 +11°C° 0 mm 6 m/s 765 mmHg 78%
05:00 +11°C° 0 mm 6 m/s 765 mmHg 80%
06:00 +12°C° 0 mm 5 m/s 765 mmHg 81%
07:00 +11°C° 0 mm 6 m/s 765 mmHg 82%
08:00 +11°C° 0 mm 6 m/s 765 mmHg 82%
09:00 +11°C° 0 mm 6 m/s 765 mmHg 82%
10:00 +13°C° 0 mm 6 m/s 765 mmHg 80%
11:00 +13°C° 0 mm 6 m/s 765 mmHg 77%
12:00 +14°C° 0 mm 6 m/s 765 mmHg 74%
13:00 +14°C° 0 mm 6 m/s 764 mmHg 74%
14:00 +14°C° 0 mm 6 m/s 764 mmHg 75%
15:00 +14°C° 0 mm 6 m/s 764 mmHg 76%
16:00 +13°C° 0 mm 6 m/s 764 mmHg 78%
17:00 +12°C° 0 mm 5 m/s 764 mmHg 81%
18:00 +10°C° 0 mm 5 m/s 764 mmHg 84%
19:00 +10°C° 0 mm 5 m/s 764 mmHg 83%
20:00 +9°C° 0 mm 5 m/s 764 mmHg 83%
21:00 +10°C° 0 mm 4 m/s 765 mmHg 83%
22:00 +10°C° 0 mm 4 m/s 765 mmHg 85%
23:00 +10°C° 0 mm 4 m/s 765 mmHg 86%

Amanhã, 25 Fevereiro, Quinta-feira

Tempo Temperatura Precipitação Vento Pressão Humidade
00:00 +10°C° 0 mm 4 m/s 765 mmHg 88%
01:00 +10°C° 0 mm 3 m/s 765 mmHg 90%
02:00 +9°C° 0 mm 3 m/s 765 mmHg 92%
03:00 +9°C° 0 mm 2 m/s 765 mmHg 94%
04:00 +10°C° 0 mm 1 m/s 765 mmHg 94%
05:00 +9°C° 0 mm 1 m/s 765 mmHg 95%
06:00 +9°C° 0 mm 1 m/s 765 mmHg 95%
07:00 +10°C° 0.1 mm 1 m/s 766 mmHg 94%
08:00 +10°C° 0.1 mm 1 m/s 766 mmHg 93%
09:00 +10°C° 0.1 mm 2 m/s 767 mmHg 92%
10:00 +10°C° 0.1 mm 3 m/s 767 mmHg 89%
11:00 +10°C° 0.1 mm 3 m/s 768 mmHg 87%
12:00 +11°C° 0.1 mm 4 m/s 768 mmHg 84%
13:00 +11°C° 0.1 mm 4 m/s 769 mmHg 82%
14:00 +11°C° 0.1 mm 4 m/s 769 mmHg 80%
15:00 +10°C° 0.1 mm 5 m/s 769 mmHg 77%
16:00 +10°C° 0 mm 4 m/s 769 mmHg 79%
17:00 +8°C° 0 mm 4 m/s 770 mmHg 81%
18:00 +7°C° 0 mm 4 m/s 770 mmHg 83%
19:00 +6°C° 0 mm 4 m/s 771 mmHg 85%
20:00 +5°C° 0 mm 4 m/s 772 mmHg 87%
21:00 +4°C° 0 mm 4 m/s 772 mmHg 89%
22:00 +4°C° 0 mm 4 m/s 772 mmHg 90%
23:00 +4°C° 0 mm 4 m/s 773 mmHg 90%

Depois de amanhã, 26 Fevereiro, Sexta-feira

Tempo Temperatura Precipitação Vento Pressão Humidade
00:00 +3°C° 0 mm 4 m/s 773 mmHg 90%
01:00 +3°C° 0 mm 4 m/s 773 mmHg 90%
02:00 +3°C° 0 mm 4 m/s 773 mmHg 90%
03:00 +3°C° 0 mm 4 m/s 773 mmHg 90%
04:00 +1°C° 0 mm 4 m/s 773 mmHg 90%
05:00 +1°C° 0 mm 4 m/s 773 mmHg 90%
06:00 +2°C° 0 mm 3 m/s 773 mmHg 90%
07:00 +3°C° 0 mm 3 m/s 774 mmHg 87%
08:00 +4°C° 0 mm 3 m/s 774 mmHg 83%
09:00 +5°C° 0 mm 3 m/s 774 mmHg 79%
10:00 +8°C° 0 mm 3 m/s 774 mmHg 72%
11:00 +9°C° 0 mm 3 m/s 775 mmHg 65%
12:00 +10°C° 0 mm 3 m/s 775 mmHg 57%
13:00 +10°C° 0 mm 3 m/s 774 mmHg 57%
14:00 +11°C° 0 mm 3 m/s 774 mmHg 57%
15:00 +11°C° 0 mm 3 m/s 774 mmHg 57%
16:00 +9°C° 0 mm 3 m/s 774 mmHg 63%
17:00 +8°C° 0 mm 3 m/s 774 mmHg 68%
18:00 +5°C° 0 mm 3 m/s 774 mmHg 74%
19:00 +4°C° 0 mm 4 m/s 774 mmHg 79%
20:00 +3°C° 0 mm 4 m/s 775 mmHg 84%
21:00 +2°C° 0 mm 5 m/s 775 mmHg 89%
22:00 +1°C° 0 mm 5 m/s 775 mmHg 90%
23:00 +1°C° 0 mm 4 m/s 775 mmHg 91%

27 Fevereiro, Sábado

Tempo Temperatura Precipitação Vento Pressão Humidade
00:00 +1°C° 0 mm 4 m/s 776 mmHg 92%
01:00 +1°C° 0 mm 4 m/s 775 mmHg 91%
02:00 0°C° 0 mm 4 m/s 775 mmHg 90%
03:00 0°C° 0 mm 4 m/s 775 mmHg 90%
04:00 0°C° 0 mm 4 m/s 775 mmHg 90%
05:00 0°C° 0 mm 4 m/s 775 mmHg 89%
06:00 0°C° 0 mm 4 m/s 775 mmHg 89%
07:00 +1°C° 0 mm 4 m/s 776 mmHg 85%
08:00 +2°C° 0 mm 5 m/s 776 mmHg 80%
09:00 +5°C° 0 mm 5 m/s 776 mmHg 76%
10:00 +6°C° 0 mm 5 m/s 776 mmHg 71%
11:00 +8°C° 0 mm 5 m/s 776 mmHg 66%
12:00 +9°C° 0 mm 5 m/s 776 mmHg 62%
13:00 +9°C° 0 mm 5 m/s 775 mmHg 62%
14:00 +10°C° 0 mm 5 m/s 775 mmHg 62%
15:00 +10°C° 0 mm 5 m/s 774 mmHg 62%
16:00 +8°C° 0 mm 5 m/s 774 mmHg 68%
17:00 +7°C° 0 mm 5 m/s 774 mmHg 73%
18:00 +5°C° 0 mm 5 m/s 773 mmHg 78%
19:00 +3°C° 0 mm 6 m/s 773 mmHg 81%
20:00 +3°C° 0 mm 6 m/s 774 mmHg 83%
21:00 +2°C° 0 mm 6 m/s 774 mmHg 86%
22:00 +2°C° 0 mm 6 m/s 774 mmHg 87%
23:00 +1°C° 0 mm 6 m/s 773 mmHg 89%

28 Fevereiro, Domingo

Tempo Temperatura Precipitação Vento Pressão Humidade
00:00 +1°C° 0 mm 5 m/s 773 mmHg 91%
01:00 +1°C° 0 mm 5 m/s 773 mmHg 90%
02:00 +1°C° 0 mm 5 m/s 772 mmHg 90%
03:00 +1°C° 0 mm 5 m/s 772 mmHg 90%
04:00 +1°C° 0 mm 6 m/s 772 mmHg 91%
05:00 +1°C° 0 mm 6 m/s 771 mmHg 91%
06:00 +1°C° 0 mm 6 m/s 771 mmHg 92%
07:00 +2°C° 0 mm 6 m/s 771 mmHg 87%
08:00 +3°C° 0 mm 6 m/s 770 mmHg 82%
09:00 +4°C° 0 mm 7 m/s 770 mmHg 77%
10:00 +5°C° 0 mm 7 m/s 770 mmHg 73%
11:00 +8°C° 0 mm 6 m/s 769 mmHg 69%
12:00 +9°C° 0 mm 6 m/s 769 mmHg 65%
13:00 +9°C° 0 mm 6 m/s 768 mmHg 65%
14:00 +10°C° 0 mm 6 m/s 768 mmHg 66%
15:00 +10°C° 0 mm 6 m/s 767 mmHg 66%
16:00 +8°C° 0 mm 5 m/s 767 mmHg 72%
17:00 +7°C° 0 mm 5 m/s 766 mmHg 77%
18:00 +6°C° 0 mm 4 m/s 766 mmHg 83%
19:00 +5°C° 0 mm 4 m/s 766 mmHg 84%
20:00 +5°C° 0 mm 4 m/s 766 mmHg 85%
21:00 +4°C° 0 mm 4 m/s 766 mmHg 86%
22:00 +5°C° 0 mm 4 m/s 766 mmHg 84%
23:00 +5°C° 0 mm 4 m/s 766 mmHg 83%

1 Março, Segunda-feira

Tempo Temperatura Precipitação Vento Pressão Humidade
00:00 +6°C° 0 mm 4 m/s 765 mmHg 81%
01:00 +5°C° 0 mm 4 m/s 765 mmHg 83%
02:00 +5°C° 0 mm 4 m/s 765 mmHg 86%
03:00 +5°C° 0 mm 4 m/s 764 mmHg 89%
04:00 +4°C° 0 mm 4 m/s 764 mmHg 91%
05:00 +4°C° 0 mm 4 m/s 764 mmHg 94%
06:00 +3°C° 0 mm 4 m/s 764 mmHg 97%
07:00 +4°C° 0 mm 4 m/s 764 mmHg 94%
08:00 +5°C° 0 mm 5 m/s 764 mmHg 91%
09:00 +6°C° 0 mm 5 m/s 765 mmHg 88%
10:00 +7°C° 0 mm 5 m/s 765 mmHg 85%
11:00 +9°C° 0 mm 5 m/s 765 mmHg 82%
12:00 +10°C° 0 mm 6 m/s 765 mmHg 78%
13:00 +10°C° 0 mm 6 m/s 765 mmHg 78%
14:00 +11°C° 0 mm 6 m/s 764 mmHg 78%
15:00 +11°C° 0 mm 6 m/s 764 mmHg 78%
16:00 +10°C° 0 mm 5 m/s 764 mmHg 82%
17:00 +9°C° 0 mm 5 m/s 764 mmHg 87%
18:00 +8°C° 0 mm 4 m/s 764 mmHg 91%
19:00 +7°C° 0 mm 4 m/s 764 mmHg 91%
20:00 +7°C° 0 mm 4 m/s 765 mmHg 92%
21:00 +7°C° 0 mm 4 m/s 765 mmHg 92%
22:00 +7°C° 0 mm 4 m/s 765 mmHg 93%
23:00 +7°C° 0 mm 4 m/s 765 mmHg 94%
Mostrar mais

Necessitamos do seu Consentimento

A Meteoprog e os seus Fornecedores de Serviços podem armazenar e aceder a dados pessoais como cookies, identificadores do dispositivo ou outras tecnologias semelhantes existentes no seu dispositivo e processar estes dados para personalizar conteúdos e anúncios, assim como funcionalidades nas redes sociais e análise de tráfego.

  • Armazenar e/ou aceder a informações no seu dispositivo

    Os cookies, identificadores do dispositivo ou outras informações podem ser armazenados ou acedidos no seu dispositivo, para os fins acima indicados.

  • Anúncios e conteúdos personalizados, medição de anúncios e conteúdos, dados sobre o público-alvo e desenvolvimento de produtos

    Os anúncios e os conteúdos podem ser personalizados com base num perfil. Podem ser adicionados dados adicionais para uma maior personalização dos anúncios e dos conteúdos. A eficácia dos anúncios e dos conteúdos pode ser medida. Podem ser obtidas informações sobre o público que visualizou os anúncios e os conteúdos. Estes dados podem ser usados para desenvolver ou melhorar sistemas, softwares ou a experiência do utilizador.

Ao clicar em "Eu concordo”, permitirá o uso de cookies, identificadores do dispositivo e web beacons mencionados ou outras tecnologias semelhantes. As configurações do navegador do seu dispositivo podem ser alteradas.

Para certos fins, podem ser invocados interesses legítimos ao invés de consentimento. Pode ler mais informação sobre este assunto na nossa Política de Privacidade e Cookies.